Hourly Data Report for July 27, 2021

FLIN FLON
MANITOBA
Current Station Operator: ECCC - MSC

54°41'00.000" N
101°41'00.000" W
303.90 m
5050919
71954
WFO

Download Data

Hourly Data (July 2021)
Hourly Data Report for July 27, 2021
TIME
LST
Temp Definition
°C
Dew Point Definition
°C
Rel Hum Definition
%
Precip. Amount Definition
mm

Wind Dir Definition
10's deg

Wind Spd Definition
km/h
Visibility Definition
km
Stn Press Definition
kPa
Hmdx Definition


Wind Chill Definition


Weather Definition


00:00 13.6 10.5 81 0.0 22 1   97.68     LegendNANA
01:00 14.2 11.1 82 0.0 22 4   97.68     LegendNANA
02:00 12.1 9.8 86 0.0   0   97.67     LegendNANA
03:00 13.6 11.5 87 0.0   0   97.64     LegendNANA
04:00 12.8 11.5 92 0.0 22 3   97.62     LegendNANA
05:00 13.1 12.3 95 0.0 20 4   97.61     LegendNANA
06:00 16.5 13.7 84 0.0 20 9   97.60     LegendNANA
07:00 17.9 14.1 78 0.0 21 10   97.57     LegendNANA
08:00 20.0 13.6 66 0.0 20 16   97.57     LegendNANA
09:00 22.5 12.4 53 0.0 24 16   97.53 25   LegendNANA
10:00 24.5 14.1 52 0.0 25 15   97.55 28   LegendNANA
11:00 25.4 13.4 47 0.0 25 15   97.55 28   LegendNANA
12:00 24.2 13.4 51 0.0 26 11   97.57 27   LegendNANA
13:00 23.7 13.9 54 0.0 24 9   97.51 27   LegendNANA
14:00 24.3 14.0 53 0.0 24 9   97.54 28   LegendNANA
15:00 26.6 12.8 43 0.0 27 19   97.49 29   LegendNANA
16:00 27.2 12.4 40 0.0 30 15   97.48 30   LegendNANA
17:00 26.5 12.4 41 0.0 24 15   97.47 29   LegendNANA
18:00 26.4 11.9 40 0.0 27 13   97.45 29   LegendNANA
19:00 25.7 12.3 43 0.0 29 8   97.43 28   LegendNANA
20:00 23.1 13.3 54 0.0 36 4   97.44 26   LegendNANA
21:00 21.1 13.2 61 0.0 34 7   97.49     LegendNANA
22:00 17.6 12.3 71 0.0 2 16   97.65     LegendNANA
23:00 17.0 12.3 74 0.0 1 3   97.59     LegendNANA

Notes on Data Quality.

Legend

  • E = Estimated
  • M = Missing
  • NA = Not Available*
  • [empty] = Indicates an unobserved value
Date modified: